QPF
0.03 0.04 0.05 0.05 0.07 0.09 0.09 0.08 0.08 0.10 0.10 0.10 0.09 0.08 0.08 0.09 0.09 0.07 0.08 0.09 0.10 0.10 0.12 0.13 0.11 0.09 0.10 0.11 0.12 0.13 0.14 0.12 0.10 0.07 0.06 0.06 0.07 0.07 0.07 0.06 0.05 0.03 0.03
0.03 0.03 0.04 0.05 0.06 0.09 0.10 0.08 0.08 0.09 0.08 0.07 0.06 0.05 0.05 0.06 0.07 0.08 0.08 0.09 0.10 0.11 0.11 0.11 0.09 0.07 0.07 0.09 0.09 0.09 0.09 0.08 0.07 0.05 0.04 0.04 0.05 0.05 0.04 0.04 0.03 0.02 0.01
0.04 0.03 0.03 0.03 0.04 0.06 0.07 0.08 0.08 0.07 0.05 0.05 0.04 0.06 0.06 0.06 0.07 0.07 0.07 0.07 0.07 0.09 0.10 0.09 0.07 0.06 0.05 0.05 0.05 0.06 0.06 0.05 0.05 0.05 0.03 0.04 0.04 0.04 0.05 0.04 0.03 0.04 0.02
0.06 0.04 0.03 0.03 0.04 0.04 0.06 0.08 0.05 0.05 0.05 0.05 0.06 0.06 0.06 0.06 0.08 0.06 0.04 0.04 0.05 0.06 0.08 0.07 0.05 0.04 0.04 0.05 0.04 0.04 0.04 0.04 0.04 0.04 0.04 0.04 0.04 0.04 0.05 0.05 0.05 0.05 0.03
0.07 0.05 0.03 0.03 0.04 0.04 0.05 0.05 0.05 0.06 0.05 0.05 0.07 0.08 0.06 0.05 0.03 0.02 0.02 0.02 0.03 0.04 0.07 0.06 0.05 0.04 0.03 0.03 0.03 0.03 0.03 0.04 0.04 0.04 0.05 0.04 0.04 0.04 0.04 0.04 0.04 0.04 0.03
0.10 0.08 0.04 0.03 0.03 0.03 0.04 0.04 0.04 0.05 0.07 0.09 0.09 0.06 0.03 0.02 0.02 0.01 0.02 0.03 0.04 0.05 0.05 0.05 0.04 0.03 0.02 0.02 0.02 0.01 0.01 0.02 0.03 0.05 0.05 0.04 0.04 0.04 0.05 0.04 0.05 0.04 0.04
0.06 0.04 0.04 0.04 0.04 0.03 0.02 0.03 0.04 0.05 0.08 0.07 0.05 0.03 0.03 0.03 0.01 0.01 0.01 0.03 0.04 0.05 0.04 0.04 0.03 0.02 0.02 0.02 0.02 0.02 0.01 0.02 0.03 0.03 0.03 0.04 0.04 0.05 0.05 0.05 0.06 0.04 0.04
0.05 0.04 0.04 0.04 0.04 0.04 0.03 0.04 0.05 0.05 0.05 0.05 0.03 0.03 0.04 0.03 0.01 0.00 0.01 0.02 0.03 0.04 0.03 0.02 0.02 0.02 0.02 0.03 0.03 0.02 0.02 0.03 0.03 0.03 0.03 0.03 0.04 0.04 0.04 0.04 0.04 0.04 0.05
0.05 0.06 0.05 0.04 0.04 0.05 0.04 0.05 0.07 0.06 0.05 0.04 0.03 0.03 0.03 0.03 0.02 0.02 0.03 0.03 0.02 0.04 0.04 0.02 0.02 0.02 0.03 0.03 0.04 0.03 0.03 0.03 0.03 0.03 0.02 0.03 0.03 0.02 0.03 0.03 0.03 0.04 0.05
0.04 0.04 0.05 0.05 0.05 0.05 0.05 0.06 0.05 0.05 0.04 0.03 0.03 0.03 0.04 0.05 0.04 0.02 0.03 0.02 0.02 0.04 0.03 0.03 0.04 0.04 0.04 0.04 0.03 0.04 0.04 0.04 0.04 0.04 0.04 0.04 0.03 0.03 0.03 0.03 0.03 0.04 0.04
0.03 0.03 0.05 0.05 0.05 0.05 0.05 0.05 0.05 0.04 0.03 0.03 0.03 0.04 0.07 0.07 0.03 0.02 0.02 0.02 0.02 0.02 0.02 0.03 0.03 0.03 0.04 0.04 0.05 0.05 0.05 0.05 0.05 0.05 0.04 0.03 0.03 0.03 0.03 0.03 0.03 0.04 0.04
0.03 0.05 0.03 0.04 0.05 0.04 0.03 0.03 0.03 0.03 0.02 0.04 0.04 0.07 0.09 0.05 0.03 0.03 0.03 0.03 0.02 0.01 0.02 0.04 0.04 0.05 0.05 0.05 0.04 0.04 0.04 0.03 0.03 0.04 0.03 0.02 0.02 0.03 0.03 0.03 0.03 0.03 0.04
0.03 0.03 0.02 0.03 0.04 0.03 0.03 0.03 0.03 0.02 0.02 0.04 0.06 0.06 0.05 0.04 0.04 0.04 0.04 0.03 0.02 0.02 0.04 0.05 0.05 0.05 0.04 0.04 0.03 0.02 0.02 0.02 0.02 0.02 0.02 0.02 0.02 0.02 0.02 0.03 0.03 0.03 0.03
0.03 0.02 0.02 0.02 0.02 0.02 0.02 0.03 0.02 0.02 0.03 0.04 0.05 0.04 0.04 0.04 0.04 0.03 0.03 0.02 0.02 0.02 0.02 0.02 0.03 0.02 0.02 0.02 0.03 0.02 0.02 0.02 0.02 0.01 0.01 0.02 0.02 0.02 0.02 0.03 0.03 0.03 0.03
0.03 0.02 0.01 0.01 0.02 0.02 0.02 0.02 0.01 0.02 0.02 0.03 0.03 0.03 0.02 0.02 0.02 0.02 0.02 0.02 0.01 0.00 0.00 0.01 0.01 0.01 0.02 0.03 0.03 0.03 0.03 0.02 0.01 0.01 0.02 0.03 0.02 0.02 0.03 0.03 0.02 0.02 0.02
0.03 0.03 0.02 0.02 0.02 0.02 0.01 0.01 0.01 0.01 0.01 0.02 0.02 0.01 0.01 0.01 0.01 0.01 0.01 0.01 0.01 0.00 0.00 0.01 0.02 0.01 0.01 0.02 0.03 0.03 0.02 0.01 0.01 0.02 0.02 0.03 0.02 0.02 0.03 0.03 0.03 0.03 0.03
0.03 0.03 0.02 0.02 0.02 0.02 0.02 0.01 0.01 0.02 0.03 0.03 0.02 0.01 0.01 0.01 0.01 0.01 0.00 0.00 0.00 0.00 0.01 0.02 0.02 0.01 0.02 0.02 0.03 0.03 0.03 0.03 0.03 0.03 0.04 0.04 0.03 0.03 0.03 0.03 0.03 0.04 0.04
0.02 0.02 0.02 0.02 0.02 0.02 0.01 0.01 0.02 0.03 0.04 0.03 0.02 0.02 0.02 0.01 0.01 0.01 0.01 0.01 0.01 0.01 0.01 0.01 0.01 0.01 0.01 0.01 0.02 0.02 0.03 0.03 0.04 0.04 0.04 0.04 0.04 0.03 0.03 0.04 0.04 0.04 0.04
0.03 0.03 0.03 0.02 0.02 0.02 0.01 0.02 0.02 0.03 0.03 0.03 0.02 0.02 0.02 0.02 0.02 0.02 0.01 0.01 0.01 0.01 0.01 0.02 0.02 0.02 0.02 0.02 0.02 0.02 0.02 0.02 0.02 0.02 0.02 0.02 0.03 0.03 0.03 0.03 0.03 0.03 0.04
0.02 0.03 0.02 0.02 0.01 0.01 0.01 0.02 0.02 0.02 0.03 0.04 0.03 0.02 0.02 0.02 0.02 0.01 0.01 0.01 0.01 0.01 0.01 0.01 0.01 0.02 0.02 0.03 0.03 0.02 0.02 0.01 0.01 0.01 0.01 0.01 0.02 0.02 0.02 0.02 0.02 0.02 0.03
0.02 0.02 0.03 0.03 0.02 0.01 0.01 0.01 0.02 0.03 0.03 0.03 0.02 0.01 0.01 0.01 0.01 0.00 0.00 0.00 0.00 0.00 0.00 0.01 0.01 0.01 0.01 0.01 0.00 0.01 0.01 0.01 0.01 0.01 0.01 0.01 0.01 0.01 0.01 0.01 0.01 0.01 0.03
0.02 0.02 0.02 0.03 0.02 0.01 0.01 0.02 0.03 0.03 0.03 0.02 0.01 0.01 0.01 0.01 0.00 0.00 0.00 0.01 0.01 0.01 0.01 0.01 0.01 0.01 0.01 0.01 0.00 0.00 0.00 0.00 0.01 0.01 0.01 0.01 0.01 0.01 0.01 0.01 0.01 0.01 0.03
0.02 0.01 0.02 0.02 0.02 0.02 0.02 0.02 0.03 0.03 0.03 0.02 0.01 0.01 0.02 0.02 0.01 0.01 0.01 0.01 0.01 0.01 0.01 0.01 0.01 0.01 0.01 0.01 0.01 0.01 0.01 0.01 0.01 0.01 0.01 0.01 0.01 0.01 0.01 0.01 0.01 0.01 0.02
0.01 0.01 0.01 0.02 0.04 0.04 0.03 0.02 0.03 0.03 0.03 0.02 0.02 0.02 0.02 0.02 0.02 0.01 0.01 0.01 0.01 0.01 0.01 0.01 0.01 0.00 0.00 0.01 0.01 0.01 0.01 0.01 0.01 0.01 0.01 0.02 0.02 0.02 0.02 0.01 0.01 0.01 0.02
0.01 0.01 0.02 0.02 0.04 0.03 0.02 0.02 0.03 0.03 0.02 0.02 0.01 0.01 0.02 0.01 0.01 0.00 0.00 0.01 0.01 0.01 0.01 0.00 0.00 0.00 0.00 0.01 0.01 0.01 0.01 0.01 0.01 0.01 0.01 0.01 0.01 0.01 0.01 0.01 0.01 0.02 0.02
0.01 0.01 0.02 0.03 0.04 0.04 0.03 0.03 0.03 0.02 0.02 0.02 0.01 0.01 0.01 0.01 0.01 0.01 0.00 0.00 0.00 0.00 0.00 0.00 0.00 0.01 0.01 0.01 0.01 0.00 0.00 0.00 0.00 0.00 0.00 0.00 0.00 0.01 0.01 0.01 0.01 0.02 0.03
MSLP
1008.67 1008.32 1008.00 1007.71 1007.45 1007.21 1006.97 1006.72 1006.46 1006.20 1005.93 1005.66 1005.40 1005.16 1004.94 1004.76 1004.63 1004.53 1004.49 1004.48 1004.51 1004.57 1004.65 1004.73 1004.81 1004.89 1004.97 1005.05 1005.14 1005.24 1005.35 1005.47 1005.57 1005.66 1005.71 1005.72 1005.67 1005.58 1005.46 1005.33 1005.22 1005.15 1005.14
1008.71 1008.32 1007.97 1007.67 1007.39 1007.15 1006.92 1006.70 1006.47 1006.23 1005.99 1005.76 1005.53 1005.33 1005.15 1005.01 1004.91 1004.84 1004.82 1004.82 1004.84 1004.88 1004.91 1004.94 1004.98 1005.01 1005.05 1005.11 1005.20 1005.30 1005.43 1005.56 1005.67 1005.75 1005.78 1005.75 1005.66 1005.50 1005.31 1005.11 1004.93 1004.80 1004.74
1008.81 1008.40 1008.01 1007.67 1007.37 1007.11 1006.87 1006.65 1006.44 1006.22 1006.02 1005.82 1005.64 1005.47 1005.34 1005.25 1005.19 1005.16 1005.15 1005.16 1005.17 1005.18 1005.18 1005.16 1005.15 1005.14 1005.15 1005.19 1005.26 1005.36 1005.49 1005.63 1005.74 1005.82 1005.83 1005.77 1005.63 1005.43 1005.19 1004.93 1004.70 1004.51 1004.40
1008.94 1008.51 1008.09 1007.71 1007.37 1007.08 1006.82 1006.59 1006.38 1006.19 1006.00 1005.84 1005.70 1005.58 1005.49 1005.44 1005.41 1005.41 1005.42 1005.43 1005.43 1005.41 1005.37 1005.32 1005.27 1005.22 1005.20 1005.22 1005.28 1005.38 1005.51 1005.64 1005.75 1005.82 1005.82 1005.74 1005.58 1005.35 1005.08 1004.78 1004.51 1004.28 1004.12
1009.05 1008.60 1008.16 1007.74 1007.37 1007.05 1006.76 1006.52 1006.31 1006.12 1005.95 1005.81 1005.70 1005.61 1005.55 1005.53 1005.52 1005.54 1005.55 1005.56 1005.54 1005.50 1005.44 1005.36 1005.28 1005.21 1005.16 1005.16 1005.21 1005.30 1005.42 1005.54 1005.65 1005.70 1005.69 1005.61 1005.44 1005.20 1004.92 1004.62 1004.32 1004.06 1003.86
1009.09 1008.63 1008.17 1007.74 1007.34 1006.99 1006.69 1006.43 1006.21 1006.02 1005.86 1005.72 1005.62 1005.55 1005.50 1005.48 1005.49 1005.50 1005.51 1005.51 1005.48 1005.42 1005.34 1005.24 1005.14 1005.05 1004.99 1004.98 1005.01 1005.08 1005.18 1005.29 1005.38 1005.43 1005.41 1005.32 1005.16 1004.93 1004.66 1004.36 1004.07 1003.80 1003.56
1009.02 1008.56 1008.10 1007.66 1007.26 1006.89 1006.58 1006.30 1006.07 1005.87 1005.70 1005.57 1005.46 1005.38 1005.32 1005.30 1005.29 1005.29 1005.29 1005.27 1005.23 1005.17 1005.07 1004.96 1004.85 1004.75 1004.68 1004.64 1004.66 1004.71 1004.79 1004.87 1004.94 1004.97 1004.94 1004.85 1004.70 1004.49 1004.23 1003.96 1003.68 1003.41 1003.16
1008.82 1008.38 1007.93 1007.49 1007.09 1006.73 1006.41 1006.13 1005.88 1005.67 1005.48 1005.32 1005.19 1005.09 1005.02 1004.98 1004.95 1004.93 1004.92 1004.89 1004.84 1004.76 1004.67 1004.55 1004.43 1004.32 1004.23 1004.18 1004.17 1004.20 1004.24 1004.29 1004.33 1004.34 1004.29 1004.20 1004.04 1003.85 1003.62 1003.37 1003.11 1002.86 1002.61
1008.51 1008.08 1007.65 1007.23 1006.84 1006.49 1006.17 1005.88 1005.62 1005.39 1005.18 1005.00 1004.84 1004.71 1004.61 1004.54 1004.50 1004.47 1004.44 1004.41 1004.36 1004.28 1004.18 1004.06 1003.94 1003.82 1003.72 1003.64 1003.60 1003.59 1003.59 1003.61 1003.60 1003.57 1003.51 1003.40 1003.24 1003.05 1002.84 1002.61 1002.37 1002.14 1001.91
1008.12 1007.70 1007.28 1006.89 1006.51 1006.17 1005.85 1005.56 1005.28 1005.03 1004.79 1004.58 1004.39 1004.24 1004.12 1004.03 1003.98 1003.94 1003.91 1003.88 1003.83 1003.76 1003.67 1003.55 1003.42 1003.28 1003.16 1003.06 1002.99 1002.94 1002.90 1002.87 1002.82 1002.76 1002.66 1002.52 1002.35 1002.16 1001.95 1001.73 1001.51 1001.30 1001.09
1007.68 1007.27 1006.87 1006.48 1006.12 1005.78 1005.46 1005.15 1004.86 1004.58 1004.31 1004.07 1003.86 1003.69 1003.56 1003.47 1003.42 1003.39 1003.37 1003.35 1003.32 1003.25 1003.16 1003.04 1002.90 1002.75 1002.61 1002.48 1002.37 1002.28 1002.20 1002.13 1002.05 1001.94 1001.81 1001.65 1001.47 1001.26 1001.04 1000.82 1000.60 1000.40 1000.21
1007.23 1006.82 1006.43 1006.05 1005.69 1005.34 1005.01 1004.68 1004.36 1004.05 1003.75 1003.49 1003.26 1003.08 1002.95 1002.87 1002.84 1002.83 1002.84 1002.84 1002.82 1002.77 1002.68 1002.55 1002.40 1002.23 1002.06 1001.90 1001.76 1001.64 1001.53 1001.43 1001.32 1001.19 1001.04 1000.85 1000.64 1000.41 1000.18 999.94 999.71 999.51 999.32
1006.80 1006.39 1006.00 1005.61 1005.24 1004.87 1004.51 1004.15 1003.79 1003.45 1003.12 1002.83 1002.60 1002.42 1002.30 1002.25 1002.24 1002.27 1002.30 1002.33 1002.33 1002.29 1002.19 1002.06 1001.89 1001.70 1001.50 1001.32 1001.16 1001.01 1000.89 1000.77 1000.65 1000.51 1000.35 1000.15 999.92 999.67 999.41 999.15 998.90 998.67 998.48
1006.42 1006.00 1005.59 1005.19 1004.79 1004.39 1003.99 1003.58 1003.18 1002.80 1002.44 1002.13 1001.89 1001.72 1001.63 1001.60 1001.63 1001.69 1001.76 1001.81 1001.82 1001.78 1001.69 1001.54 1001.35 1001.14 1000.92 1000.72 1000.54 1000.39 1000.27 1000.15 1000.04 999.91 999.75 999.55 999.31 999.04 998.75 998.46 998.18 997.92 997.70
1006.07 1005.64 1005.21 1004.78 1004.35 1003.90 1003.45 1002.99 1002.54 1002.12 1001.73 1001.41 1001.16 1001.00 1000.93 1000.93 1000.99 1001.08 1001.18 1001.25 1001.27 1001.23 1001.13 1000.96 1000.75 1000.52 1000.29 1000.08 999.90 999.76 999.65 999.55 999.46 999.36 999.21 999.03 998.79 998.51 998.20 997.88 997.56 997.26 996.99
1005.75 1005.31 1004.85 1004.39 1003.91 1003.42 1002.91 1002.40 1001.90 1001.44 1001.02 1000.68 1000.43 1000.27 1000.22 1000.24 1000.32 1000.44 1000.55 1000.63 1000.66 1000.62 1000.50 1000.33 1000.10 999.86 999.62 999.41 999.24 999.11 999.02 998.96 998.90 998.83 998.72 998.55 998.33 998.05 997.72 997.37 997.02 996.68 996.36
1005.42 1004.97 1004.49 1003.99 1003.47 1002.93 1002.38 1001.82 1001.27 1000.77 1000.32 999.96 999.71 999.56 999.51 999.54 999.64 999.77 999.89 999.98 1000.00 999.95 999.83 999.65 999.42 999.17 998.94 998.73 998.58 998.47 998.41 998.38 998.36 998.32 998.24 998.10 997.89 997.63 997.30 996.94 996.56 996.18 995.82
1005.07 1004.60 1004.11 1003.58 1003.02 1002.44 1001.84 1001.24 1000.66 1000.13 999.66 999.29 999.02 998.87 998.82 998.86 998.96 999.09 999.21 999.30 999.32 999.27 999.15 998.97 998.75 998.51 998.29 998.10 997.97 997.89 997.86 997.86 997.86 997.85 997.80 997.69 997.50 997.25 996.93 996.57 996.18 995.79 995.40
1004.68 1004.20 1003.68 1003.13 1002.54 1001.93 1001.30 1000.68 1000.08 999.52 999.04 998.65 998.38 998.22 998.17 998.21 998.30 998.43 998.55 998.63 998.66 998.62 998.51 998.34 998.14 997.93 997.73 997.58 997.47 997.41 997.40 997.42 997.45 997.46 997.43 997.33 997.17 996.94 996.65 996.30 995.93 995.54 995.14
1004.24 1003.75 1003.21 1002.65 1002.04 1001.41 1000.77 1000.13 999.51 998.95 998.47 998.08 997.81 997.64 997.58 997.61 997.70 997.82 997.93 998.02 998.05 998.03 997.94 997.81 997.65 997.48 997.32 997.20 997.12 997.09 997.10 997.13 997.16 997.18 997.16 997.08 996.94 996.73 996.47 996.15 995.81 995.45 995.07
1003.77 1003.26 1002.71 1002.13 1001.52 1000.88 1000.23 999.59 998.98 998.43 997.95 997.57 997.30 997.13 997.07 997.09 997.17 997.28 997.40 997.49 997.54 997.54 997.49 997.41 997.29 997.17 997.07 996.99 996.94 996.94 996.96 996.99 997.02 997.04 997.01 996.94 996.81 996.63 996.40 996.14 995.84 995.52 995.19
1003.28 1002.75 1002.19 1001.60 1000.98 1000.34 999.70 999.08 998.48 997.95 997.49 997.13 996.87 996.71 996.65 996.67 996.75 996.85 996.97 997.07 997.14 997.18 997.17 997.14 997.08 997.02 996.97 996.94 996.93 996.94 996.97 997.00 997.02 997.02 996.99 996.91 996.79 996.64 996.44 996.22 995.98 995.72 995.43
1002.79 1002.25 1001.67 1001.07 1000.45 999.82 999.19 998.59 998.02 997.52 997.10 996.76 996.53 996.39 996.34 996.36 996.44 996.55 996.67 996.78 996.88 996.94 996.98 997.00 997.00 997.00 997.00 997.01 997.04 997.06 997.09 997.12 997.12 997.10 997.04 996.95 996.83 996.69 996.52 996.33 996.14 995.93 995.69
1002.32 1001.76 1001.17 1000.56 999.93 999.31 998.71 998.14 997.61 997.15 996.77 996.48 996.28 996.17 996.14 996.18 996.26 996.38 996.50 996.63 996.74 996.84 996.91 996.97 997.02 997.07 997.11 997.16 997.20 997.24 997.26 997.26 997.24 997.18 997.09 996.98 996.84 996.68 996.52 996.36 996.19 996.01 995.81
1001.87 1001.29 1000.68 1000.07 999.45 998.85 998.27 997.74 997.26 996.86 996.54 996.30 996.15 996.08 996.08 996.14 996.24 996.36 996.49 996.62 996.74 996.85 996.95 997.04 997.12 997.19 997.26 997.32 997.36 997.39 997.39 997.36 997.30 997.19 997.05 996.89 996.71 996.52 996.34 996.16 996.00 995.83 995.65
1001.44 1000.84 1000.23 999.62 999.01 998.43 997.89 997.41 996.99 996.65 996.39 996.22 996.14 996.12 996.17 996.25 996.37 996.50 996.64 996.77 996.89 997.00 997.09 997.18 997.26 997.34 997.40 997.45 997.48 997.48 997.44 997.36 997.23 997.06 996.85 996.62 996.37 996.12 995.89 995.67 995.46 995.27 995.07
Thickness
5674 5671 5667 5663 5660 5657 5654 5651 5649 5646 5643 5641 5639 5638 5637 5635 5634 5632 5632 5631 5630 5628 5628 5628 5626 5626 5625 5624 5623 5622 5620 5618 5615 5616 5618 5618 5618 5617 5616 5616 5615 5615 5614
5672 5668 5665 5662 5658 5654 5651 5649 5646 5643 5641 5639 5637 5635 5633 5632 5630 5628 5627 5627 5625 5623 5623 5623 5621 5621 5620 5619 5617 5616 5614 5613 5610 5608 5609 5610 5610 5610 5609 5608 5608 5608 5608
5669 5665 5662 5659 5656 5652 5649 5646 5644 5641 5639 5637 5634 5632 5630 5628 5627 5625 5623 5622 5621 5620 5620 5619 5617 5616 5615 5613 5612 5610 5609 5608 5606 5603 5603 5603 5603 5604 5601 5600 5600 5600 5601
5667 5663 5660 5656 5653 5651 5648 5645 5642 5640 5637 5634 5632 5630 5628 5625 5623 5621 5620 5619 5618 5617 5617 5616 5614 5612 5610 5608 5607 5605 5603 5601 5600 5598 5597 5597 5596 5596 5593 5591 5591 5592 5593
5663 5660 5657 5654 5651 5649 5646 5644 5641 5638 5635 5632 5630 5628 5625 5623 5619 5617 5616 5616 5614 5613 5613 5612 5611 5609 5606 5604 5602 5599 5597 5595 5593 5591 5590 5590 5588 5587 5585 5585 5584 5584 5585
5660 5657 5655 5652 5649 5646 5644 5642 5639 5636 5633 5630 5627 5625 5622 5619 5615 5614 5612 5611 5611 5610 5609 5608 5608 5605 5602 5600 5597 5595 5592 5589 5587 5585 5584 5582 5581 5580 5579 5579 5577 5576 5576
5657 5655 5653 5650 5647 5644 5642 5640 5637 5634 5631 5628 5626 5623 5620 5616 5614 5612 5610 5609 5608 5607 5606 5605 5604 5603 5599 5596 5593 5591 5588 5586 5583 5580 5579 5577 5576 5576 5574 5573 5572 5571 5571
5655 5653 5651 5649 5646 5643 5640 5637 5636 5633 5630 5627 5625 5623 5620 5616 5613 5611 5610 5609 5608 5606 5605 5603 5601 5598 5596 5592 5591 5588 5585 5583 5581 5579 5576 5574 5574 5573 5571 5570 5569 5569 5569
5653 5652 5650 5648 5644 5641 5638 5636 5634 5632 5629 5627 5626 5623 5620 5616 5613 5611 5608 5608 5607 5605 5604 5602 5599 5596 5592 5590 5587 5585 5582 5580 5579 5577 5574 5572 5571 5569 5567 5564 5563 5562 5561
5653 5652 5650 5647 5644 5640 5638 5636 5634 5632 5630 5628 5626 5623 5621 5617 5613 5610 5607 5607 5605 5604 5602 5600 5597 5594 5591 5587 5584 5582 5578 5577 5575 5575 5572 5571 5569 5567 5564 5560 5558 5556 5554
5653 5651 5649 5647 5644 5642 5639 5637 5635 5632 5630 5627 5625 5623 5620 5617 5613 5609 5606 5604 5603 5602 5601 5599 5596 5592 5589 5585 5582 5579 5576 5573 5572 5571 5570 5568 5566 5563 5560 5557 5554 5551 5549
5652 5650 5648 5647 5645 5644 5640 5638 5636 5633 5630 5627 5624 5622 5620 5616 5612 5608 5605 5603 5602 5600 5599 5597 5595 5591 5587 5584 5580 5578 5574 5571 5569 5567 5565 5562 5559 5557 5555 5553 5550 5548 5547
5651 5649 5647 5646 5644 5643 5640 5638 5635 5633 5630 5627 5625 5621 5618 5616 5612 5608 5605 5603 5601 5598 5597 5595 5592 5589 5586 5583 5580 5577 5573 5570 5567 5563 5560 5557 5555 5553 5551 5549 5547 5545 5544
5649 5647 5647 5645 5643 5641 5640 5638 5634 5631 5629 5626 5623 5620 5618 5615 5611 5608 5606 5603 5600 5598 5595 5593 5591 5589 5586 5583 5580 5577 5573 5568 5564 5560 5557 5554 5552 5550 5547 5544 5542 5540 5538
5648 5647 5646 5645 5643 5640 5638 5635 5634 5630 5627 5624 5622 5620 5617 5614 5609 5605 5603 5602 5599 5597 5594 5594 5592 5590 5586 5583 5580 5576 5572 5567 5562 5558 5555 5551 5548 5546 5543 5541 5537 5535 5532
5647 5646 5646 5646 5644 5641 5639 5637 5633 5631 5628 5625 5622 5619 5617 5613 5610 5607 5605 5602 5600 5597 5594 5594 5591 5589 5586 5582 5579 5575 5570 5565 5561 5557 5552 5548 5545 5542 5539 5537 5534 5531 5528
5646 5645 5646 5646 5645 5643 5642 5640 5636 5633 5630 5626 5623 5620 5617 5614 5611 5608 5605 5602 5600 5597 5595 5593 5590 5587 5584 5581 5577 5572 5567 5563 5558 5554 5549 5546 5543 5540 5536 5533 5530 5527 5525
5646 5645 5644 5645 5645 5645 5645 5644 5641 5638 5635 5631 5627 5623 5620 5616 5613 5610 5606 5602 5603 5600 5597 5593 5590 5586 5582 5578 5574 5569 5565 5560 5556 5551 5547 5543 5540 5537 5533 5529 5526 5523 5520
5644 5645 5644 5645 5646 5647 5647 5646 5644 5642 5639 5636 5633 5629 5623 5619 5614 5610 5605 5604 5603 5600 5597 5593 5588 5584 5580 5576 5572 5567 5563 5558 5553 5549 5544 5541 5537 5534 5530 5526 5523 5519 5516
5643 5642 5642 5644 5646 5646 5646 5647 5645 5644 5642 5638 5635 5633 5629 5623 5618 5614 5609 5606 5603 5599 5596 5592 5587 5583 5578 5574 5570 5566 5561 5556 5551 5546 5541 5537 5534 5530 5527 5523 5520 5517 5513
5643 5643 5641 5643 5645 5646 5646 5646 5645 5644 5642 5639 5636 5634 5629 5626 5622 5617 5613 5608 5603 5599 5594 5590 5586 5582 5577 5573 5568 5563 5558 5552 5546 5541 5537 5534 5531 5527 5524 5521 5517 5514 5510
5642 5643 5643 5643 5644 5645 5646 5646 5645 5643 5642 5639 5637 5635 5629 5627 5623 5619 5614 5609 5604 5599 5595 5590 5585 5580 5575 5570 5565 5559 5554 5548 5543 5538 5534 5531 5528 5525 5522 5518 5515 5511 5507
5640 5641 5643 5643 5644 5643 5644 5646 5645 5644 5642 5640 5639 5636 5631 5627 5623 5619 5615 5610 5605 5600 5595 5589 5584 5579 5573 5567 5562 5556 5549 5543 5538 5534 5531 5528 5525 5523 5519 5515 5512 5507 5503
5639 5640 5641 5642 5642 5643 5644 5645 5644 5644 5642 5640 5638 5636 5631 5626 5623 5618 5614 5610 5605 5600 5594 5589 5583 5577 5571 5565 5559 5553 5545 5539 5535 5532 5528 5525 5523 5520 5517 5512 5508 5504 5500
5637 5638 5640 5641 5641 5642 5643 5643 5643 5642 5641 5639 5637 5635 5631 5627 5622 5618 5614 5609 5604 5599 5594 5588 5582 5575 5569 5562 5556 5550 5543 5539 5534 5530 5526 5524 5521 5518 5514 5510 5505 5501 5496
5635 5637 5639 5640 5640 5640 5641 5641 5641 5640 5639 5638 5636 5633 5630 5626 5621 5617 5613 5608 5604 5598 5592 5586 5580 5573 5567 5561 5554 5548 5542 5538 5533 5529 5526 5523 5520 5515 5511 5507 5502 5498 5493